Location: Vihti�l�
(61.3833°N, 23.0667°E)
Time: 04:28:56
(UTC+00:00)

FENGYUN 3A - Pass Details

Date: 29 November 2020
Orbit: 823 x 837 km, 98.4° (Epoch: 19 January)

Event Time Altitude Azimuth Distance (km) Brightness Sun altitude
Rises 03:06:15 0° 18° (NNE) 3,400 7.1 -27.1°
Reaches altitude 10° 03:08:39 10° 21° (NNE) 2,460 6.4 -26.8°
Maximum altitude 03:14:05 63° 103° (ESE) 928 4.0 -26.2°
Drops below altitude 10° 03:19:26 10° 185° (S) 2,435 6.0 -25.6°
Sets 03:21:49 0° 189° (S) 3,363 6.7 -25.3°
